| time (UTC) | temp F | wind direction | speed knots | gust knots | rain 1hr in | rain 24hr in | rain mn in | humidity % | barometer mb |
| 20260505040052 | 49 | 290 | 2.6 | 7.0 | 0.00 | 0.00 | 0.00 | 51 | 1009.0 |
| 20260505034545 | 49 | 322 | 0.9 | 3.5 | 0.00 | 0.00 | 0.00 | 49 | 1008.8 |
| 20260505033050 | 49 | 278 | 1.7 | 4.3 | 0.00 | 0.00 | 0.00 | 48 | 1008.8 |
| 20260505031553 | 50 | 264 | 2.6 | 6.1 | 0.00 | 0.00 | 0.00 | 47 | 1008.2 |
| 20260505024551 | 51 | 353 | 0.9 | 5.2 | 0.00 | 0.00 | 0.00 | 43 | 1007.8 |
| 20260505023050 | 52 | 288 | 2.6 | 8.7 | 0.00 | 0.00 | 0.00 | 42 | 1007.7 |
| 20260505021553 | 53 | 40 | 2.6 | 8.7 | 0.00 | 0.00 | 0.00 | 43 | 1007.5 |
| 20260505020053 | 53 | 0 | 2.6 | 6.1 | 0.00 | 0.00 | 0.00 | 44 | 1007.3 |
| 20260505014551 | 54 | 326 | 0.9 | 6.1 | 0.00 | 0.00 | 0.00 | 43 | 1007.0 |
| 20260505013050 | 55 | 335 | 1.7 | 7.8 | 0.00 | 0.00 | 0.00 | 42 | 1006.8 |
| 20260505011550 | 57 | 72 | 2.6 | 6.1 | 0.00 | 0.00 | 0.00 | 40 | 1006.8 |
| 20260505010106 | 59 | 340 | 0.9 | 4.3 | 0.00 | 0.00 | 0.00 | 38 | 1006.6 |
| 20260505004547 | 59 | 300 | 4.3 | 7.0 | 0.00 | 0.00 | 0.00 | 38 | 1006.6 |
| 20260505003050 | 59 | 307 | 3.5 | 9.6 | 0.00 | 0.00 | 0.00 | 38 | 1006.8 |
| 20260505001546 | 59 | 212 | 3.5 | 5.2 | 0.00 | 0.00 | 0.00 | 38 | 1006.8 |
| 20260505000052 | 58 | 192 | 0.0 | 7.8 | 0.00 | 0.00 | 0.00 | 41 | 1006.8 |
| 20260504234552 | 55 | 248 | 1.7 | 12.2 | 0.00 | 0.00 | 0.00 | 44 | 1007.0 |
| 20260504233054 | 54 | 268 | 7.0 | 18.2 | 0.00 | 0.00 | 0.00 | 46 | 1007.4 |
| 20260504231552 | 58 | 236 | 6.1 | 14.8 | 0.00 | 0.00 | 0.00 | 36 | 1007.2 |
| 20260504230114 | 58 | 258 | 5.2 | 13.9 | 0.00 | 0.00 | 0.00 | 35 | 1006.8 |
| 20260504224606 | 60 | 291 | 9.6 | 16.5 | 0.00 | 0.00 | 0.00 | 35 | 1006.6 |
| 20260504223051 | 60 | 288 | 10.4 | 24.3 | 0.00 | 0.00 | 0.00 | 34 | 1006.6 |
| 20260504221550 | 62 | 269 | 8.7 | 19.1 | 0.00 | 0.00 | 0.00 | 31 | 1006.4 |
| 20260504220057 | 62 | 278 | 8.7 | 14.8 | 0.00 | 0.00 | 0.00 | 31 | 1006.6 |
| 20260504214550 | 61 | 227 | 7.8 | 17.4 | 0.00 | 0.00 | 0.00 | 29 | 1006.9 |
| 20260504213051 | 61 | 243 | 7.8 | 13.9 | 0.00 | 0.00 | 0.00 | 31 | 1007.0 |
| 20260504211557 | 60 | 283 | 4.3 | 10.4 | 0.00 | 0.00 | 0.00 | 34 | 1007.2 |
| 20260504210100 | 59 | 271 | 9.6 | 26.9 | 0.00 | 0.00 | 0.00 | 27 | 1007.5 |
| 20260504204550 | 61 | 338 | 6.1 | 15.6 | 0.00 | 0.00 | 0.00 | 33 | 1007.3 |
| 20260504203056 | 57 | 290 | 4.3 | 23.5 | 0.00 | 0.00 | 0.00 | 37 | 1007.7 |
| 20260504201559 | 60 | 290 | 6.1 | 11.3 | 0.00 | 0.00 | 0.00 | 37 | 1007.9 |
| 20260504194551 | 62 | 88 | 5.2 | 11.3 | 0.00 | 0.00 | 0.00 | 33 | 1007.8 |
| 20260504193050 | 61 | 264 | 6.1 | 15.6 | 0.00 | 0.00 | 0.00 | 34 | 1008.0 |
| 20260504191605 | 60 | 243 | 1.7 | 13.9 | 0.00 | 0.00 | 0.00 | 36 | 1008.1 |
| 20260504190049 | 60 | 269 | 6.1 | 11.3 | 0.00 | 0.00 | 0.00 | 35 | 1008.3 |
| 20260504184549 | 58 | 279 | 7.0 | 13.9 | 0.00 | 0.00 | 0.00 | 38 | 1008.6 |
| 20260504183050 | 59 | 283 | 8.7 | 13.0 | 0.00 | 0.00 | 0.00 | 37 | 1008.8 |
| 20260504181546 | 59 | 285 | 4.3 | 8.7 | 0.00 | 0.00 | 0.00 | 38 | 1008.8 |
| 20260504180051 | 59 | 237 | 0.9 | 8.7 | 0.00 | 0.00 | 0.00 | 37 | 1008.7 |
| 20260504174554 | 58 | 203 | 3.5 | 8.7 | 0.00 | 0.00 | 0.00 | 37 | 1009.0 |
| 20260504173052 | 57 | 315 | 3.5 | 6.1 | 0.00 | 0.00 | 0.00 | 36 | 1009.1 |
| 20260504171549 | 57 | 248 | 3.5 | 4.3 | 0.00 | 0.00 | 0.00 | 38 | 1009.2 |
| 20260504120119 | 28 | 114 | 0.0 | 0.9 | 0.00 | 0.00 | 0.00 | 88 | 1010.4 |
| 20260504081548 | 32 | 297 | 0.0 | 0.9 | 0.00 | 0.00 | 0.00 | 79 | 1010.7 |
| 20260504044554 | 41 | 0 | 0.0 | 0.9 | 0.00 | 0.00 | 0.00 | 62 | 1011.3 |
| 20260504043115 | 42 | 285 | 0.9 | 1.7 | 0.00 | 0.00 | 0.00 | 61 | 1011.5 |
| 20260504041551 | 43 | 0 | 0.0 | 1.7 | 0.00 | 0.00 | 0.00 | 58 | 1011.3 |